Cordova, SC

4:42 PM EST on February 11, 2016 (GMT -0500)
Orangeburg Municipal

Weather History for KOGB - September, 2013

Change the Weather History Date:

Wednesday, September 18, 2013

  Actual Average Record
Temperature  
Mean Temperature 70 °F 74 °F  
Max Temperature 80 °F 85 °F 99 °F (1980)
Min Temperature 60 °F 64 °F 52 °F (2001)
Degree Days  
Heating Degree Days 0 0  
Month to date heating degree days 0 0  
Since 1 July heating degree days 0 0  
Cooling Degree Days 5 10  
Month to date cooling degree days 244 207  
Year to date cooling degree days 1836 1900  
Growing Degree Days 20 (Base 50)    
Moisture  
Dew Point 56 °F    
Average Humidity 66    
Maximum Humidity 90    
Minimum Humidity 42    
Precipitation  
Precipitation 0.00 in 0.12 in 1.66 in (1998)
Month to date precipitation 0.69 2.30  
Year to date precipitation 48.00 35.61  
Sea Level Pressure  
Sea Level Pressure 30.20 in    
Wind  
Wind Speed 5 mph (NE)    
Max Wind Speed 14 mph    
Max Gust Speed 20 mph    
Visibility 10 miles    
Events      
T = Trace of Precipitation, MM = Missing Value Source: NWS Daily Summary

Daily Weather History Graph

Daily Weather History Graph

Search for Another Location

Airport or City:

Trip Planner

Search our weather history database for the weather conditions in past years. The results will help you decide how hot, cold, wet, or windy it might be!

Date:

Astronomy

Sep. 18, 2013 Rise Set
Actual Time 7:09 AM EDT 7:25 PM EDT
Civil Twilight 6:44 AM EDT 7:50 PM EDT
Nautical Twilight 6:15 AM EDT 8:19 PM EDT
Astronomical Twilight 5:45 AM EDT 8:48 PM EDT
Moon 6:48 PM EDT (9/18) 6:10 AM EDT (9/18)
Length of Visible Light 13h 06m
Length of Day
12h 16m
Waxing Gibbous, 99% of the Moon is Illuminated
Sep 18
Waxing Gibbous
Sep 19
Full
Sep 26
Last Quarter
Oct 4
New
Oct 11
First Quarter

Hourly Weather History & Observations

Time (EDT) Temp. Dew Point Humidity Pressure Visibility Wind Dir Wind Speed Gust Speed Precip Events Conditions
12:53 AM 66.0 °F 55.0 °F 68% 30.21 in 10.0 mi NE 6.9 mph - N/A   Clear
1:53 AM 64.9 °F 55.9 °F 73% 30.21 in 10.0 mi NE 5.8 mph - N/A   Clear
2:53 AM 64.0 °F 57.0 °F 78% 30.21 in 10.0 mi NE 5.8 mph - N/A   Clear
3:53 AM 63.0 °F 57.0 °F 81% 30.20 in 10.0 mi ENE 6.9 mph - N/A   Clear
4:53 AM 63.0 °F 55.9 °F 78% 30.20 in 10.0 mi NE 5.8 mph - N/A   Clear
5:53 AM 61.0 °F 55.0 °F 81% 30.21 in 10.0 mi ENE 6.9 mph - N/A   Clear
6:53 AM 60.1 °F 54.0 °F 80% 30.23 in 10.0 mi NE 5.8 mph - N/A   Clear
7:53 AM 60.1 °F 54.0 °F 80% 30.25 in 10.0 mi NE 5.8 mph - N/A   Clear
8:53 AM 62.1 °F 54.0 °F 75% 30.25 in 10.0 mi NE 6.9 mph - N/A   Clear
9:53 AM 66.9 °F 53.1 °F 61% 30.25 in 10.0 mi NE 10.4 mph - N/A   Clear
10:53 AM 71.1 °F 53.1 °F 53% 30.26 in 10.0 mi NE 8.1 mph - N/A   Partly Cloudy
11:53 AM 73.0 °F 54.0 °F 51% 30.24 in 10.0 mi ENE 6.9 mph - N/A   Partly Cloudy
12:53 PM 75.9 °F 53.1 °F 45% 30.23 in 10.0 mi East 9.2 mph - N/A   Clear
1:53 PM 77.0 °F 53.1 °F 43% 30.20 in 10.0 mi Variable 6.9 mph - N/A   Scattered Clouds
2:53 PM 78.1 °F 54.0 °F 43% 30.19 in 10.0 mi NE 8.1 mph - N/A   Mostly Cloudy
3:53 PM 79.0 °F 54.0 °F 42% 30.16 in 10.0 mi NNE 8.1 mph - N/A   Mostly Cloudy
4:53 PM 79.0 °F 54.0 °F 42% 30.16 in 10.0 mi NE 3.5 mph - N/A   Partly Cloudy
5:53 PM 78.1 °F 54.0 °F 43% 30.15 in 10.0 mi NNE 6.9 mph - N/A   Clear
6:53 PM 75.9 °F 55.0 °F 48% 30.15 in 10.0 mi NNE 4.6 mph - N/A   Clear
7:53 PM 70.0 °F 59.0 °F 68% 30.15 in 10.0 mi Calm Calm - N/A   Clear
8:53 PM 66.9 °F 59.0 °F 76% 30.17 in 10.0 mi Calm Calm - N/A   Clear
9:53 PM 64.9 °F 59.0 °F 81% 30.18 in 10.0 mi Calm Calm - N/A   Clear
10:53 PM 64.0 °F 57.9 °F 80% 30.18 in 10.0 mi Calm Calm - N/A   Clear
11:13 PM 62.6 °F 59.0 °F 88% 30.18 in 10.0 mi Calm Calm - N/A   Partly Cloudy
11:53 PM 62.1 °F 59.0 °F 90% 30.18 in 9.0 mi Calm Calm - N/A   Clear